Regional Weather Roundup
Issued by NWS

Home | Current Version | Previous Version | Text Only | Print | Product List | Glossary On
Versions: 1 2 3 4 5 6 7 8 9 10 11 12 13 14 15 16 17 18 19 20 21 22 23 24 25 26 27 28 29 30 31 32 33 34 35 36 37 38 39 40 41 42 43 44 45 46 47 48 49 50
000
ASUS43 KLMK 302202
RWRKY
KENTUCKY REGIONAL WEATHER ROUNDUP
NATIONAL WEATHER SERVICE LOUISVILLE KY
600 PM EDT SUN AUG 30 2015

NOTE "FAIR" INDICATES FEW OR NO CLOUDS BELOW 12,000 FEET
WITH NO SIGNIFICANT WEATHER AND/OR OBSTRUCTIONS TO VISIBILITY.

KYZ001>023-026-027-061>063-070>075-302300-
WESTERN AND SOUTH CENTRAL KENTUCKY

CITY           SKY/WX    TMP DP  RH WIND       PRES   REMARKS
PADUCAH        MOSUNNY   86  70  58 SE8       30.01F HX  90
HENDERSON      PTSUNNY   75  70  83 E3        30.02F
OWENSBORO      MOSUNNY   85  71  62 S9        30.04S HX  90
HOPKINSVILLE   TSTM      73  71  92 N7        30.06R
BOWLING GREEN  SUNNY     85  64  49 S10       30.06S
GLASGOW        NOT AVBL
$$

KYZ024-025-028>034-038-045-046-053-302300-
NORTH CENTRAL KENTUCKY

CITY           SKY/WX    TMP DP  RH WIND       PRES   REMARKS
LOUISVILLE/SDF PTSUNNY   83  69  62 SW8       30.04F
LOUISVILLE/LOU PTSUNNY   84  69  60 S8        30.05F
FORT KNOX      LGT RAIN  81  68  65 VRB1      30.04F
$$

KYZ035>037-039>044-047>052-055>060-089>105-302300-
NORTHEAST KENTUCKY

CITY           SKY/WX    TMP DP  RH WIND       PRES   REMARKS
LEXINGTON      PTSUNNY   80  67  64 SW9       30.08S
COVINGTON      PTSUNNY   77  63  61 S8        30.06S
FRANKFORT      CLOUDY    80  64  58 S12       30.06S
$$

KYZ054-064>069-076>088-106>120-302300-
SOUTHEAST KENTUCKY

CITY           SKY/WX    TMP DP  RH WIND       PRES   REMARKS
JACKSON        MOSUNNY   80  63  55 CALM      30.12F
LONDON         PTSUNNY   81  59  47 S6        30.11F
SOMERSET       NOT AVBL
MIDDLESBORO    CLOUDY    77  68  75 CALM      30.12F
MONTICELLO     MOCLDY    80  67  64 CALM      30.12F
$$




USA.gov is the U.S. government's official web portal to all federal, state and local government web resources and services.